SWA3176 KBNA-KSFO

Flight info

Callsign SWA3176
Flight time N/A
Altitude 32000
Route PARDN4 HODJS KM39I KM39G TUPLE KK45A KOWTO KD51U HBU ELLMU MLF KITTN Q164 KATTS Q136 RUMPS OAL INYOE DYAMD5
Aircraft B38M/M-SADE2E3GHIJ4J7P2RWZ/LB1D1

Departure

Time N/A
Airport Nashville International Airport (KBNA)

Arrival

Time 2026-05-06 03:12
Airport San Francisco International Airport (KSFO)
Time Latitude Longitude Altitude Speed Heading
2026-05-06 03:04 37.26438 -122.14409 7377 ft 291 kts 10°
2026-05-06 03:05 37.28425 -122.13956 7048 ft 291 kts 10°
2026-05-06 03:05 37.30425 -122.13555 6685 ft 290 kts 11°
2026-05-06 03:05 37.32404 -122.13076 6427 ft 288 kts 11°
2026-05-06 03:05 37.34369 -122.12611 6084 ft 287 kts 11°
2026-05-06 03:06 37.36327 -122.12151 6025 ft 287 kts
2026-05-06 03:06 37.38317 -122.12154 5674 ft 289 kts 347°
2026-05-06 03:06 37.40241 -122.12826 5369 ft 286 kts 345°
2026-05-06 03:06 37.42154 -122.13476 5044 ft 283 kts 345°
2026-05-06 03:07 37.44050 -122.14123 4715 ft 283 kts 345°
2026-05-06 03:07 37.45950 -122.14774 4347 ft 285 kts 344°
2026-05-06 03:07 37.47877 -122.15438 3972 ft 285 kts 343°
2026-05-06 03:07 37.49785 -122.16094 3618 ft 284 kts 343°
2026-05-06 03:08 37.51645 -122.16743 3257 ft 271 kts 340°
2026-05-06 03:08 37.53243 -122.17850 2889 ft 257 kts 316°
2026-05-06 03:08 37.54329 -122.19546 2592 ft 242 kts 300°
2026-05-06 03:08 37.55117 -122.21367 2336 ft 231 kts 296°
2026-05-06 03:09 37.55842 -122.23119 2071 ft 221 kts 297°
2026-05-06 03:09 37.56538 -122.24779 1911 ft 204 kts 297°
2026-05-06 03:09 37.57167 -122.26280 1761 ft 187 kts 296°
2026-05-06 03:09 37.57757 -122.27688 1512 ft 172 kts 296°
2026-05-06 03:10 37.58274 -122.28942 1276 ft 152 kts 295°
2026-05-06 03:10 37.58739 -122.30050 1059 ft 145 kts 296°
2026-05-06 03:10 37.59225 -122.31183 852 ft 145 kts 296°
2026-05-06 03:10 37.59655 -122.32216 667 ft 142 kts 295°
2026-05-06 03:11 37.59801 -122.32583 594 ft 141 kts 295°
2026-05-06 03:11 37.60238 -122.33633 458 ft 140 kts 297°
2026-05-06 03:11 37.60703 -122.34722 275 ft 142 kts 296°
2026-05-06 03:12 37.61164 -122.35822 69 ft 143 kts 296°
2026-05-06 03:12 37.61593 -122.36831 24 ft 104 kts 298°
2026-05-06 03:12 37.61819 -122.37381 27 ft 54 kts 298°
2026-05-06 03:12 37.61985 -122.37779 28 ft 28 kts 296°
2026-05-06 03:13 37.61949 -122.37943 28 ft 18 kts 200°
2026-05-06 03:13 37.61893 -122.37924 26 ft 0 kts 148°
2026-05-06 03:13 37.61878 -122.37912 27 ft 6 kts 148°
2026-05-06 03:13 37.61823 -122.37851 24 ft 17 kts 118°
2026-05-06 03:14 37.61765 -122.37662 24 ft 29 kts 111°
2026-05-06 03:14 37.61671 -122.37438 24 ft 23 kts 160°
2026-05-06 03:14 37.61543 -122.37501 25 ft 21 kts 208°
2026-05-06 03:14 37.61400 -122.37599 28 ft 26 kts 208°
2026-05-06 03:15 37.61287 -122.37754 25 ft 26 kts 271°
2026-05-06 03:15 37.61358 -122.37975 27 ft 27 kts 297°
2026-05-06 03:15 37.61478 -122.38095 25 ft 23 kts 31°
2026-05-06 03:15 37.61590 -122.38153 24 ft 20 kts 290°
2026-05-06 03:16 37.61631 -122.38256 24 ft 7 kts 332°
2026-05-06 03:16 37.61659 -122.38260 24 ft 1 kts
2026-05-06 03:16 37.61662 -122.38260 27 ft 0 kts